This is the latest recevied weather packets stored in our database for station/object WB4ROX. If no packets are shown the sender has not sent any weather packets the latest 10 day(s).
| Time | Temp. | Humidity | Pressure | Rain* | Wind** | Luminosity | Snow |
|---|---|---|---|---|---|---|---|
| 1778022316 | 15.56° C | 47% | 1017.3 hPa | 0 mm | - | 68 W/m² | - |
| 1778022012 | 16.11° C | 45% | 1017.4 hPa | 0 mm | - | 124 W/m² | - |
| 1778021709 | 16.11° C | 45% | 1017.5 hPa | 0 mm | - | 144 W/m² | - |
| 1778021405 | 16.67° C | 43% | 1017.3 hPa | 0 mm | - | 158 W/m² | - |
| 1778021102 | 17.22° C | 43% | 1017.3 hPa | 0 mm | - | 208 W/m² | - |
| 1778020799 | 16.67° C | 43% | 1017.1 hPa | 0 mm | - | 263 W/m² | - |
| 1778020496 | 16.67° C | 43% | 1017.3 hPa | 0 mm | - | 262 W/m² | - |
| 1778020193 | 17.22° C | 43% | 1017.1 hPa | 0 mm | - | 238 W/m² | - |
| 1778019889 | 17.22° C | 43% | 1017.4 hPa | 0 mm | - | 306 W/m² | - |
| 1778019584 | 17.22° C | 42% | 1017.3 hPa | 0 mm | - | 352 W/m² | - |
| 1778019282 | 17.78° C | 41% | 1017.3 hPa | 0 mm | - | 204 W/m² | - |
| 1778018979 | 17.22° C | 41% | 1017.1 hPa | 0 mm | - | 373 W/m² | - |
| 1778018676 | 17.22° C | 42% | 1016.9 hPa | 0 mm | - | 426 W/m² | - |
| 1778018374 | 17.22° C | 43% | 1017 hPa | 0 mm | - | 438 W/m² | - |
| 1778018072 | 17.22° C | 43% | 1017.3 hPa | 0 mm | - | 240 W/m² | - |
| 1778017769 | 17.22° C | 44% | 1017 hPa | 0 mm | - | 475 W/m² | - |
| 1778017467 | 17.22° C | 44% | 1016.9 hPa | 0 mm | - | 230 W/m² | - |
| 1778017164 | 16.67° C | 46% | 1017.1 hPa | 0 mm | - | 520 W/m² | - |
| 1778016862 | 15.56° C | 47% | 1017 hPa | 0 mm | - | 537 W/m² | - |
| 1778016558 | 15.56° C | 47% | 1016.9 hPa | 0 mm | - | 215 W/m² | - |
| 1778016255 | 15.56° C | 47% | 1017.1 hPa | 0 mm | - | 204 W/m² | - |
| 1778015951 | 16.67° C | 45% | 1017.3 hPa | 0 mm | - | 137 W/m² | - |
| 1778015649 | 16.67° C | 44% | 1017.3 hPa | 0 mm | - | 283 W/m² | - |
| 1778015345 | 16.11° C | 44% | 1017.4 hPa | 0 mm | - | 275 W/m² | - |
| 1778015042 | 16.11° C | 44% | 1017.4 hPa | 0 mm | - | 357 W/m² | - |
* Rain latest hour (hover to see other rain measurements)
** Current wind speed in m/s (hover to see current wind gust speed)